Time,TemperatureF,DewpointF,PressureIn,WindDirection,WindDirectionDegrees,WindSpeedMPH,WindSpeedGustMPH,Humidity,HourlyPrecipIn,Conditions,Clouds,dailyrainin,SoftwareType,DateUTC
2013-02-09 00:00:00,32.1,25.1,30.39,NNE,31,4.0,17.0,75,0.00,,,0.00,Wunderground v.1.15,2013-02-09 05:00:00,
2013-02-09 00:01:00,32.1,25.1,30.39,NNE,23,5.0,17.0,75,0.00,,,0.00,Wunderground v.1.15,2013-02-09 05:01:00,
2013-02-09 00:05:00,32.1,25.1,30.39,NNE,19,5.0,17.0,75,0.00,,,0.00,Wunderground v.1.15,2013-02-09 05:05:00,
2013-02-09 00:09:00,32.0,25.0,30.39,NNE,27,4.0,17.0,75,0.00,,,0.00,Wunderground v.1.15,2013-02-09 05:09:00,
2013-02-09 00:14:00,32.0,25.0,30.38,NNE,20,3.0,17.0,75,0.00,,,0.00,Wunderground v.1.15,2013-02-09 05:14:00,
2013-02-09 00:20:00,32.0,25.0,30.38,NE,47,3.0,17.0,75,0.00,,,0.00,Wunderground v.1.15,2013-02-09 05:20:00,
2013-02-09 00:26:00,32.0,25.0,30.38,NE,45,3.0,17.0,75,0.00,,,0.00,Wunderground v.1.15,2013-02-09 05:26:00,
2013-02-09 00:32:00,31.9,24.9,30.38,ENE,74,3.0,17.0,75,0.00,,,0.00,Wunderground v.1.15,2013-02-09 05:32:00,
2013-02-09 00:38:00,31.9,24.9,30.38,NE,49,4.0,17.0,75,0.00,,,0.00,Wunderground v.1.15,2013-02-09 05:38:00,
2013-02-09 00:44:00,31.9,24.9,30.38,NNE,19,4.0,17.0,75,0.00,,,0.00,Wunderground v.1.15,2013-02-09 05:44:00,
2013-02-09 00:50:00,31.8,24.8,30.39,NNE,20,3.0,17.0,75,0.00,,,0.00,Wunderground v.1.15,2013-02-09 05:50:00,
2013-02-09 00:56:00,31.7,25.0,30.39,NNE,18,3.0,17.0,76,0.00,,,0.00,Wunderground v.1.15,2013-02-09 05:56:00,
2013-02-09 01:02:00,31.7,25.0,30.39,NNE,30,3.0,17.0,76,0.00,,,0.00,Wunderground v.1.15,2013-02-09 06:02:00,
2013-02-09 01:08:00,31.7,25.3,30.39,NNE,21,2.0,17.0,77,0.00,,,0.00,Wunderground v.1.15,2013-02-09 06:08:00,
2013-02-09 01:14:00,31.7,25.0,30.39,NNE,22,2.0,17.0,76,0.00,,,0.00,Wunderground v.1.15,2013-02-09 06:14:00,
2013-02-09 01:20:00,31.6,24.9,30.39,NNE,33,3.0,17.0,76,0.00,,,0.00,Wunderground v.1.15,2013-02-09 06:20:00,
2013-02-09 01:26:00,31.6,24.9,30.39,NE,35,3.0,17.0,76,0.00,,,0.00,Wunderground v.1.15,2013-02-09 06:26:00,
2013-02-09 01:32:00,31.5,24.8,30.39,ENE,65,3.0,17.0,76,0.00,,,0.00,Wunderground v.1.15,2013-02-09 06:32:00,
2013-02-09 01:38:00,31.5,24.5,30.39,ENE,66,2.0,17.0,75,0.00,,,0.00,Wunderground v.1.15,2013-02-09 06:38:00,
2013-02-09 01:43:00,31.5,24.8,30.40,NNE,27,2.0,17.0,76,0.00,,,0.00,Wunderground v.1.15,2013-02-09 06:43:00,
2013-02-09 01:48:00,31.5,24.5,30.40,NNE,31,3.0,17.0,75,0.00,,,0.00,Wunderground v.1.15,2013-02-09 06:48:00,
2013-02-09 01:54:00,31.4,24.4,30.39,NNE,29,4.0,17.0,75,0.00,,,0.00,Wunderground v.1.15,2013-02-09 06:54:00,
2013-02-09 02:00:00,31.4,24.4,30.39,East,86,2.0,17.0,75,0.00,,,0.00,Wunderground v.1.15,2013-02-09 07:00:00,
2013-02-09 02:06:00,31.3,24.6,30.39,NNE,29,3.0,17.0,76,0.00,,,0.00,Wunderground v.1.15,2013-02-09 07:06:00,
2013-02-09 02:12:00,31.3,24.6,30.39,North,8,3.0,17.0,76,0.00,,,0.00,Wunderground v.1.15,2013-02-09 07:12:00,
2013-02-09 02:18:00,31.3,24.6,30.39,North,10,3.0,17.0,76,0.00,,,0.00,Wunderground v.1.15,2013-02-09 07:18:00,
2013-02-09 02:24:00,31.2,24.8,30.40,NNE,22,3.0,17.0,77,0.00,,,0.00,Wunderground v.1.15,2013-02-09 07:24:00,
2013-02-09 02:30:00,31.2,24.8,30.40,NNE,29,3.0,17.0,77,0.00,,,0.00,Wunderground v.1.15,2013-02-09 07:30:00,
2013-02-09 02:36:00,31.2,24.8,30.40,NNE,29,2.0,17.0,77,0.00,,,0.00,Wunderground v.1.15,2013-02-09 07:36:00,
2013-02-09 02:42:00,31.2,24.8,30.40,ESE,119,1.0,17.0,77,0.00,,,0.00,Wunderground v.1.15,2013-02-09 07:42:00,
2013-02-09 02:48:00,31.1,24.4,30.40,ESE,106,3.0,17.0,76,0.00,,,0.00,Wunderground v.1.15,2013-02-09 07:48:00,
2013-02-09 02:53:00,31.1,24.4,30.40,NE,52,3.0,3.0,76,0.00,,,0.00,Wunderground v.1.15,2013-02-09 07:53:00,
2013-02-09 02:59:00,31.1,24.4,30.40,NE,55,2.0,17.0,76,0.00,,,0.00,Wunderground v.1.15,2013-02-09 07:59:00,
2013-02-09 03:05:00,31.1,24.4,30.40,East,88,3.0,17.0,76,0.00,,,0.00,Wunderground v.1.15,2013-02-09 08:05:00,
2013-02-09 03:11:00,31.1,24.4,30.40,ENE,75,3.0,17.0,76,0.00,,,0.00,Wunderground v.1.15,2013-02-09 08:11:00,
2013-02-09 03:17:00,31.1,24.4,30.40,ENE,63,2.0,17.0,76,0.00,,,0.00,Wunderground v.1.15,2013-02-09 08:17:00,
2013-02-09 03:23:00,31.1,24.4,30.40,ENE,78,2.0,2.0,76,0.00,,,0.00,Wunderground v.1.15,2013-02-09 08:23:00,
2013-02-09 03:29:00,31.0,24.3,30.40,ENE,78,1.0,17.0,76,0.00,,,0.00,Wunderground v.1.15,2013-02-09 08:29:00,
2013-02-09 03:35:00,31.0,24.3,30.39,ENE,78,1.0,17.0,76,0.00,,,0.00,Wunderground v.1.15,2013-02-09 08:35:00,
2013-02-09 03:41:00,31.0,24.6,30.39,ESE,107,1.0,17.0,77,0.00,,,0.00,Wunderground v.1.15,2013-02-09 08:41:00,
2013-02-09 03:47:00,30.9,24.5,30.39,ENE,66,2.0,17.0,77,0.00,,,0.00,Wunderground v.1.15,2013-02-09 08:47:00,
2013-02-09 03:52:00,30.8,24.1,30.39,NE,35,2.0,17.0,76,0.00,,,0.00,Wunderground v.1.15,2013-02-09 08:52:00,
2013-02-09 03:58:00,30.8,24.4,30.38,NE,51,2.0,17.0,77,0.00,,,0.00,Wunderground v.1.15,2013-02-09 08:58:00,
2013-02-09 04:04:00,30.7,24.3,30.38,East,79,2.0,17.0,77,0.00,,,0.00,Wunderground v.1.15,2013-02-09 09:04:00,
2013-02-09 04:10:00,30.7,24.3,30.38,East,83,2.0,17.0,77,0.00,,,0.00,Wunderground v.1.15,2013-02-09 09:10:00,
2013-02-09 04:16:00,30.6,24.6,30.38,East,83,2.0,17.0,78,0.00,,,0.00,Wunderground v.1.15,2013-02-09 09:16:00,
2013-02-09 04:22:00,30.5,24.5,30.39,East,83,1.0,17.0,78,0.00,,,0.00,Wunderground v.1.15,2013-02-09 09:22:00,
2013-02-09 04:28:00,30.4,23.7,30.39,ESE,108,1.0,17.0,76,0.00,,,0.00,Wunderground v.1.15,2013-02-09 09:28:00,
2013-02-09 04:34:00,30.3,23.6,30.39,ENE,60,2.0,17.0,76,0.00,,,0.00,Wunderground v.1.15,2013-02-09 09:34:00,
2013-02-09 04:40:00,30.1,23.8,30.39,ENE,60,1.0,17.0,77,0.00,,,0.00,Wunderground v.1.15,2013-02-09 09:40:00,
2013-02-09 04:46:00,29.9,23.6,30.39,ENE,60,1.0,17.0,77,0.00,,,0.00,Wunderground v.1.15,2013-02-09 09:46:00,
2013-02-09 04:52:00,29.7,23.4,30.40,East,90,2.0,17.0,77,0.00,,,0.00,Wunderground v.1.15,2013-02-09 09:52:00,
2013-02-09 04:57:00,29.6,23.3,30.40,East,90,1.0,17.0,77,0.00,,,0.00,Wunderground v.1.15,2013-02-09 09:57:00,
2013-02-09 05:03:00,29.4,23.1,30.40,East,90,1.0,17.0,77,0.00,,,0.00,Wunderground v.1.15,2013-02-09 10:03:00,
2013-02-09 05:08:00,29.3,23.0,30.40,East,90,1.0,17.0,77,0.00,,,0.00,Wunderground v.1.15,2013-02-09 10:08:00,
2013-02-09 05:14:00,29.2,22.9,30.40,East,90,1.0,17.0,77,0.00,,,0.00,Wunderground v.1.15,2013-02-09 10:14:00,
2013-02-09 05:20:00,29.0,23.0,30.40,East,90,0.0,17.0,78,0.00,,,0.00,Wunderground v.1.15,2013-02-09 10:20:00,
2013-02-09 05:26:00,28.8,22.8,30.40,East,90,1.0,17.0,78,0.00,,,0.00,Wunderground v.1.15,2013-02-09 10:26:00,
2013-02-09 05:32:00,28.7,22.7,30.41,East,90,1.0,17.0,78,0.00,,,0.00,Wunderground v.1.15,2013-02-09 10:32:00,
2013-02-09 05:38:00,28.7,22.7,30.41,East,90,1.0,17.0,78,0.00,,,0.00,Wunderground v.1.15,2013-02-09 10:38:00,
2013-02-09 05:44:00,28.6,22.6,30.41,East,90,1.0,17.0,78,0.00,,,0.00,Wunderground v.1.15,2013-02-09 10:44:00,
2013-02-09 05:50:00,28.4,22.4,30.40,East,90,1.0,17.0,78,0.00,,,0.00,Wunderground v.1.15,2013-02-09 10:50:00,
2013-02-09 05:56:00,28.3,22.6,30.41,East,90,1.0,17.0,79,0.00,,,0.00,Wunderground v.1.15,2013-02-09 10:56:00,
2013-02-09 06:02:00,28.2,22.5,30.41,East,90,0.0,17.0,79,0.00,,,0.00,Wunderground v.1.15,2013-02-09 11:02:00,
2013-02-09 06:08:00,28.1,22.7,30.41,East,90,0.0,17.0,80,0.00,,,0.00,Wunderground v.1.15,2013-02-09 11:08:00,
2013-02-09 06:14:00,28.0,22.6,30.42,East,90,1.0,1.0,80,0.00,,,0.00,Wunderground v.1.15,2013-02-09 11:14:00,
2013-02-09 06:20:00,28.0,22.6,30.41,East,90,1.0,2.0,80,0.00,,,0.00,Wunderground v.1.15,2013-02-09 11:20:00,
2013-02-09 06:26:00,28.0,22.6,30.42,East,90,1.0,1.0,80,0.00,,,0.00,Wunderground v.1.15,2013-02-09 11:26:00,
2013-02-09 06:32:00,27.8,22.4,30.41,East,90,1.0,1.0,80,0.00,,,0.00,Wunderground v.1.15,2013-02-09 11:32:00,
2013-02-09 06:38:00,27.6,22.5,30.42,East,90,1.0,1.0,81,0.00,,,0.00,Wunderground v.1.15,2013-02-09 11:38:00,
2013-02-09 06:44:00,27.4,22.3,30.42,East,90,1.0,1.0,81,0.00,,,0.00,Wunderground v.1.15,2013-02-09 11:44:00,
2013-02-09 06:50:00,27.2,22.1,30.42,East,90,1.0,1.0,81,0.00,,,0.00,Wunderground v.1.15,2013-02-09 11:50:00,
2013-02-09 06:55:00,27.0,22.2,30.41,East,90,1.0,1.0,82,0.00,,,0.00,Wunderground v.1.15,2013-02-09 11:55:00,
2013-02-09 07:01:00,26.7,22.2,30.42,East,90,1.0,2.0,83,0.00,,,0.00,Wunderground v.1.15,2013-02-09 12:01:00,
2013-02-09 07:07:00,26.6,22.4,30.42,SE,125,1.0,3.0,84,0.00,,,0.00,Wunderground v.1.15,2013-02-09 12:07:00,
2013-02-09 07:13:00,26.8,22.6,30.42,SE,125,1.0,3.0,84,0.00,,,0.00,Wunderground v.1.15,2013-02-09 12:13:00,
2013-02-09 07:19:00,26.9,22.7,30.42,SE,141,1.0,3.0,84,0.00,,,0.00,Wunderground v.1.15,2013-02-09 12:19:00,
2013-02-09 07:25:00,26.7,22.2,30.42,SE,141,1.0,3.0,83,0.00,,,0.00,Wunderground v.1.15,2013-02-09 12:25:00,
2013-02-09 07:31:00,26.3,22.1,30.43,SE,141,1.0,3.0,84,0.00,,,0.00,Wunderground v.1.15,2013-02-09 12:31:00,
2013-02-09 07:37:00,25.9,21.7,30.43,SE,141,1.0,3.0,84,0.00,,,0.00,Wunderground v.1.15,2013-02-09 12:37:00,
2013-02-09 07:43:00,25.5,21.6,30.43,SE,141,0.0,3.0,85,0.00,,,0.00,Wunderground v.1.15,2013-02-09 12:43:00,
2013-02-09 07:49:00,25.3,21.7,30.43,SE,141,0.0,3.0,86,0.00,,,0.00,Wunderground v.1.15,2013-02-09 12:49:00,
2013-02-09 07:55:00,25.2,21.9,30.43,SE,141,0.0,3.0,87,0.00,,,0.00,Wunderground v.1.15,2013-02-09 12:55:00,
2013-02-09 08:00:00,25.3,22.0,30.44,SE,141,0.0,3.0,87,0.00,,,0.00,Wunderground v.1.15,2013-02-09 13:00:00,
2013-02-09 08:05:00,25.4,22.1,30.44,SE,141,0.0,3.0,87,0.00,,,0.00,Wunderground v.1.15,2013-02-09 13:05:00,
2013-02-09 08:11:00,25.4,21.8,30.44,SE,141,1.0,3.0,86,0.00,,,0.00,Wunderground v.1.15,2013-02-09 13:11:00,
2013-02-09 08:17:00,25.4,22.1,30.44,SE,141,1.0,3.0,87,0.00,,,0.00,Wunderground v.1.15,2013-02-09 13:17:00,
2013-02-09 08:23:00,25.7,22.4,30.44,SE,141,0.0,3.0,87,0.00,,,0.00,Wunderground v.1.15,2013-02-09 13:23:00,
2013-02-09 08:29:00,26.1,22.8,30.43,SE,141,0.0,3.0,87,0.00,,,0.00,Wunderground v.1.15,2013-02-09 13:29:00,
2013-02-09 08:35:00,26.7,23.6,30.43,SE,141,1.0,3.0,88,0.00,,,0.00,Wunderground v.1.15,2013-02-09 13:35:00,
2013-02-09 08:41:00,27.4,24.3,30.43,SE,141,1.0,3.0,88,0.00,,,0.00,Wunderground v.1.15,2013-02-09 13:41:00,
2013-02-09 08:47:00,28.2,24.8,30.43,SE,135,1.0,3.0,87,0.00,,,0.00,Wunderground v.1.15,2013-02-09 13:47:00,
2013-02-09 08:53:00,28.7,24.8,30.43,SE,135,1.0,3.0,85,0.00,,,0.00,Wunderground v.1.15,2013-02-09 13:53:00,
2013-02-09 08:59:00,29.2,25.0,30.43,SE,135,1.0,3.0,84,0.00,,,0.00,Wunderground v.1.15,2013-02-09 13:59:00,
2013-02-09 09:04:00,29.5,25.3,30.43,SE,135,1.0,3.0,84,0.00,,,0.00,Wunderground v.1.15,2013-02-09 14:04:00,
2013-02-09 09:10:00,30.0,25.2,30.42,ESE,120,2.0,3.0,82,0.00,,,0.00,Wunderground v.1.15,2013-02-09 14:10:00,
2013-02-09 09:16:00,30.5,25.1,30.42,SE,138,2.0,3.0,80,0.00,,,0.00,Wunderground v.1.15,2013-02-09 14:16:00,
2013-02-09 09:22:00,30.7,25.3,30.42,SE,135,3.0,5.0,80,0.00,,,0.00,Wunderground v.1.15,2013-02-09 14:22:00,
2013-02-09 09:28:00,30.8,24.7,30.42,SE,137,4.0,6.0,78,0.00,,,0.00,Wunderground v.1.15,2013-02-09 14:28:00,
2013-02-09 09:34:00,31.1,25.0,30.42,SE,130,3.0,4.0,78,0.00,,,0.00,Wunderground v.1.15,2013-02-09 14:34:00,
2013-02-09 09:40:00,31.5,25.1,30.41,SE,135,4.0,6.0,77,0.00,,,0.00,Wunderground v.1.15,2013-02-09 14:40:00,
2013-02-09 09:46:00,31.7,25.0,30.41,ESE,110,4.0,5.0,76,0.00,,,0.00,Wunderground v.1.15,2013-02-09 14:46:00,
2013-02-09 09:51:00,32.0,25.0,30.42,SE,131,4.0,5.0,75,0.00,,,0.00,Wunderground v.1.15,2013-02-09 14:51:00,
2013-02-09 09:57:00,32.1,24.7,30.42,SE,140,4.0,8.0,74,0.00,,,0.00,Wunderground v.1.15,2013-02-09 14:57:00,
2013-02-09 10:03:00,32.2,24.8,30.42,SE,139,5.0,9.0,74,0.00,,,0.00,Wunderground v.1.15,2013-02-09 15:03:00,
2013-02-09 10:09:00,32.3,24.9,30.42,SE,133,5.0,9.0,74,0.00,,,0.00,Wunderground v.1.15,2013-02-09 15:09:00,
2013-02-09 10:15:00,32.8,24.8,30.42,SE,136,5.0,7.0,72,0.00,,,0.00,Wunderground v.1.15,2013-02-09 15:15:00,
2013-02-09 10:21:00,33.1,24.7,30.42,SE,125,6.0,12.0,71,0.00,,,0.00,Wunderground v.1.15,2013-02-09 15:21:00,
2013-02-09 10:26:00,33.5,24.8,30.42,SE,143,6.0,7.0,70,0.00,,,0.00,Wunderground v.1.15,2013-02-09 15:26:00,
2013-02-09 10:32:00,33.8,24.7,30.41,SE,137,6.0,9.0,69,0.00,,,0.00,Wunderground v.1.15,2013-02-09 15:32:00,
2013-02-09 10:38:00,33.4,24.3,30.41,SE,140,7.0,11.0,69,0.00,,,0.00,Wunderground v.1.15,2013-02-09 15:38:00,
2013-02-09 10:44:00,33.3,24.9,30.41,SE,141,8.0,9.0,71,0.00,,,0.00,Wunderground v.1.15,2013-02-09 15:44:00,
2013-02-09 10:50:00,34.2,25.1,30.42,ESE,121,6.0,9.0,69,0.00,,,0.00,Wunderground v.1.15,2013-02-09 15:50:00,
2013-02-09 10:56:00,34.3,25.5,30.42,SE,140,6.0,6.0,70,0.00,,,0.00,Wunderground v.1.15,2013-02-09 15:56:00,
2013-02-09 11:02:00,34.9,25.4,30.41,ESE,116,5.0,9.0,68,0.00,,,0.00,Wunderground v.1.15,2013-02-09 16:02:00,
2013-02-09 11:08:00,35.1,25.6,30.41,SE,125,5.0,10.0,68,0.00,,,0.00,Wunderground v.1.15,2013-02-09 16:08:00,
2013-02-09 11:14:00,35.1,25.2,30.41,SE,136,5.0,9.0,67,0.00,,,0.00,Wunderground v.1.15,2013-02-09 16:14:00,
2013-02-09 11:20:00,35.3,25.4,30.42,SE,135,5.0,9.0,67,0.00,,,0.00,Wunderground v.1.15,2013-02-09 16:20:00,
2013-02-09 11:25:00,35.5,25.6,30.42,ESE,116,5.0,5.0,67,0.00,,,0.00,Wunderground v.1.15,2013-02-09 16:25:00,
2013-02-09 11:31:00,35.9,25.6,30.42,ENE,73,5.0,8.0,66,0.00,,,0.00,Wunderground v.1.15,2013-02-09 16:31:00,
2013-02-09 11:37:00,36.4,25.7,30.42,SE,135,5.0,7.0,65,0.00,,,0.00,Wunderground v.1.15,2013-02-09 16:37:00,
2013-02-09 11:43:00,36.6,26.3,30.42,SE,141,5.0,6.0,66,0.00,,,0.00,Wunderground v.1.15,2013-02-09 16:43:00,
2013-02-09 11:49:00,36.7,26.0,30.42,SE,142,4.0,6.0,65,0.00,,,0.00,Wunderground v.1.15,2013-02-09 16:49:00,
2013-02-09 11:55:00,36.5,25.5,30.42,SSE,162,4.0,5.0,64,0.00,,,0.00,Wunderground v.1.15,2013-02-09 16:55:00,
2013-02-09 12:01:00,36.3,25.7,30.42,SE,136,5.0,8.0,65,0.00,,,0.00,Wunderground v.1.15,2013-02-09 17:01:00,
2013-02-09 12:07:00,37.5,26.4,30.42,SE,140,4.0,7.0,64,0.00,,,0.00,Wunderground v.1.15,2013-02-09 17:07:00,
2013-02-09 12:13:00,37.0,25.2,30.41,SSW,203,4.0,7.0,62,0.00,,,0.00,Wunderground v.1.15,2013-02-09 17:13:00,
2013-02-09 12:19:00,36.4,25.4,30.41,ESE,114,6.0,9.0,64,0.00,,,0.00,Wunderground v.1.15,2013-02-09 17:19:00,
2013-02-09 12:25:00,37.3,25.8,30.40,SE,141,7.0,9.0,63,0.00,,,0.00,Wunderground v.1.15,2013-02-09 17:25:00,
2013-02-09 12:31:00,38.2,25.5,30.40,ESE,122,5.0,9.0,60,0.00,,,0.00,Wunderground v.1.15,2013-02-09 17:31:00,
2013-02-09 12:37:00,38.7,25.6,30.39,SE,138,4.0,8.0,59,0.00,,,0.00,Wunderground v.1.15,2013-02-09 17:37:00,
2013-02-09 12:42:00,38.2,25.5,30.39,SE,141,5.0,8.0,60,0.00,,,0.00,Wunderground v.1.15,2013-02-09 17:42:00,
2013-02-09 12:47:00,38.5,26.6,30.38,SE,141,6.0,7.0,62,0.00,,,0.00,Wunderground v.1.15,2013-02-09 17:47:00,
2013-02-09 12:53:00,39.5,26.3,30.38,SE,125,5.0,5.0,59,0.00,,,0.00,Wunderground v.1.15,2013-02-09 17:53:00,
2013-02-09 12:59:00,39.7,26.1,30.37,SSE,150,5.0,8.0,58,0.00,,,0.00,Wunderground v.1.15,2013-02-09 17:59:00,
2013-02-09 13:05:00,39.2,26.9,30.37,ESE,106,6.0,6.0,61,0.00,,,0.00,Wunderground v.1.15,2013-02-09 18:05:00,
2013-02-09 13:11:00,39.9,25.5,30.37,SSE,152,5.0,11.0,56,0.00,,,0.00,Wunderground v.1.15,2013-02-09 18:11:00,
2013-02-09 13:17:00,40.0,26.0,30.37,NE,41,5.0,7.0,57,0.00,,,0.00,Wunderground v.1.15,2013-02-09 18:17:00,
2013-02-09 13:23:00,40.5,25.1,30.36,SE,135,3.0,3.0,54,0.00,,,0.00,Wunderground v.1.15,2013-02-09 18:23:00,
2013-02-09 13:29:00,40.4,25.9,30.36,SE,137,6.0,10.0,56,0.00,,,0.00,Wunderground v.1.15,2013-02-09 18:29:00,
2013-02-09 13:35:00,39.9,25.0,30.36,SSE,167,6.0,6.0,55,0.00,,,0.00,Wunderground v.1.15,2013-02-09 18:35:00,
2013-02-09 13:41:00,40.7,26.2,30.35,East,100,4.0,6.0,56,0.00,,,0.00,Wunderground v.1.15,2013-02-09 18:41:00,
2013-02-09 13:47:00,41.8,25.9,30.35,East,81,4.0,8.0,53,0.00,,,0.00,Wunderground v.1.15,2013-02-09 18:47:00,
2013-02-09 13:52:00,42.2,24.9,30.34,East,96,4.0,8.0,50,0.00,,,0.00,Wunderground v.1.15,2013-02-09 18:52:00,
2013-02-09 13:58:00,41.8,24.5,30.34,ENE,73,5.0,7.0,50,0.00,,,0.00,Wunderground v.1.15,2013-02-09 18:58:00,
2013-02-09 14:03:00,41.5,25.2,30.34,SE,129,6.0,6.0,52,0.00,,,0.00,Wunderground v.1.15,2013-02-09 19:03:00,
2013-02-09 14:09:00,41.7,24.9,30.33,ESE,118,6.0,7.0,51,0.00,,,0.00,Wunderground v.1.15,2013-02-09 19:09:00,
2013-02-09 14:15:00,42.2,24.4,30.33,SE,138,5.0,11.0,49,0.00,,,0.00,Wunderground v.1.15,2013-02-09 19:15:00,
2013-02-09 14:21:00,41.9,25.5,30.33,SSE,147,5.0,11.0,52,0.00,,,0.00,Wunderground v.1.15,2013-02-09 19:21:00,
2013-02-09 14:27:00,42.2,24.9,30.32,SSE,151,6.0,11.0,50,0.00,,,0.00,Wunderground v.1.15,2013-02-09 19:27:00,
2013-02-09 14:33:00,42.6,24.8,30.32,SE,139,6.0,10.0,49,0.00,,,0.00,Wunderground v.1.15,2013-02-09 19:33:00,
2013-02-09 14:39:00,42.3,25.0,30.32,SE,131,7.0,10.0,50,0.00,,,0.00,Wunderground v.1.15,2013-02-09 19:39:00,
2013-02-09 14:45:00,42.8,23.9,30.32,SE,130,6.0,16.0,47,0.00,,,0.00,Wunderground v.1.15,2013-02-09 19:45:00,
2013-02-09 14:51:00,42.4,25.1,30.31,SE,132,6.0,16.0,50,0.00,,,0.00,Wunderground v.1.15,2013-02-09 19:51:00,
2013-02-09 14:56:00,42.8,25.4,30.31,SE,139,5.0,7.0,50,0.00,,,0.00,Wunderground v.1.15,2013-02-09 19:56:00,
2013-02-09 15:02:00,43.6,25.2,30.31,ESE,114,4.0,9.0,48,0.00,,,0.00,Wunderground v.1.15,2013-02-09 20:02:00,
2013-02-09 15:08:00,43.3,24.4,30.30,SE,125,6.0,11.0,47,0.00,,,0.00,Wunderground v.1.15,2013-02-09 20:08:00,
2013-02-09 15:14:00,43.1,24.7,30.30,SE,138,7.0,8.0,48,0.00,,,0.00,Wunderground v.1.15,2013-02-09 20:14:00,
2013-02-09 15:20:00,43.4,25.0,30.30,SE,133,6.0,9.0,48,0.00,,,0.00,Wunderground v.1.15,2013-02-09 20:20:00,
2013-02-09 15:26:00,44.3,26.3,30.30,SSE,154,5.0,9.0,49,0.00,,,0.00,Wunderground v.1.15,2013-02-09 20:26:00,
2013-02-09 15:32:00,44.6,25.6,30.29,SSE,156,5.0,9.0,47,0.00,,,0.00,Wunderground v.1.15,2013-02-09 20:32:00,
2013-02-09 15:38:00,43.9,24.9,30.29,ESE,122,6.0,8.0,47,0.00,,,0.00,Wunderground v.1.15,2013-02-09 20:38:00,
2013-02-09 15:44:00,44.3,26.3,30.30,SSE,149,5.0,5.0,49,0.00,,,0.00,Wunderground v.1.15,2013-02-09 20:44:00,
2013-02-09 15:50:00,44.5,24.5,30.29,SSE,147,5.0,8.0,45,0.00,,,0.00,Wunderground v.1.15,2013-02-09 20:50:00,
2013-02-09 15:56:00,43.3,24.4,30.29,SE,144,7.0,11.0,47,0.00,,,0.00,Wunderground v.1.15,2013-02-09 20:56:00,
2013-02-09 16:02:00,43.4,24.5,30.29,ESE,122,7.0,11.0,47,0.00,,,0.00,Wunderground v.1.15,2013-02-09 21:02:00,
2013-02-09 16:08:00,43.3,24.4,30.29,SSE,157,8.0,13.0,47,0.00,,,0.00,Wunderground v.1.15,2013-02-09 21:08:00,
2013-02-09 16:13:00,43.1,25.2,30.30,SSE,154,8.0,8.0,49,0.00,,,0.00,Wunderground v.1.15,2013-02-09 21:13:00,
2013-02-09 16:19:00,43.2,24.8,30.29,South,185,7.0,9.0,48,0.00,,,0.00,Wunderground v.1.15,2013-02-09 21:19:00,
2013-02-09 16:25:00,43.0,24.6,30.29,South,190,7.0,7.0,48,0.00,,,0.00,Wunderground v.1.15,2013-02-09 21:25:00,
2013-02-09 16:31:00,43.1,24.2,30.29,SSE,160,6.0,10.0,47,0.00,,,0.00,Wunderground v.1.15,2013-02-09 21:31:00,
2013-02-09 16:37:00,43.1,24.7,30.29,SSE,165,6.0,7.0,48,0.00,,,0.00,Wunderground v.1.15,2013-02-09 21:37:00,
2013-02-09 16:43:00,43.1,24.7,30.29,SE,144,5.0,7.0,48,0.00,,,0.00,Wunderground v.1.15,2013-02-09 21:43:00,
2013-02-09 16:49:00,43.4,25.0,30.29,SSE,150,4.0,7.0,48,0.00,,,0.00,Wunderground v.1.15,2013-02-09 21:49:00,
2013-02-09 16:55:00,43.5,25.1,30.29,SE,134,4.0,7.0,48,0.00,,,0.00,Wunderground v.1.15,2013-02-09 21:55:00,
2013-02-09 17:01:00,43.0,24.6,30.29,SE,143,6.0,8.0,48,0.00,,,0.00,Wunderground v.1.15,2013-02-09 22:01:00,
2013-02-09 17:07:00,42.9,25.0,30.28,ESE,116,5.0,7.0,49,0.00,,,0.00,Wunderground v.1.15,2013-02-09 22:07:00,
2013-02-09 17:12:00,43.2,25.8,30.28,SE,132,4.0,7.0,50,0.00,,,0.00,Wunderground v.1.15,2013-02-09 22:12:00,
2013-02-09 17:18:00,43.1,25.2,30.28,SSE,150,4.0,4.0,49,0.00,,,0.00,Wunderground v.1.15,2013-02-09 22:18:00,
2013-02-09 17:24:00,42.9,25.5,30.28,SE,128,3.0,4.0,50,0.00,,,0.00,Wunderground v.1.15,2013-02-09 22:24:00,
2013-02-09 17:30:00,42.8,25.4,30.27,SE,145,4.0,4.0,50,0.00,,,0.00,Wunderground v.1.15,2013-02-09 22:30:00,
2013-02-09 17:36:00,42.5,25.1,30.27,SE,137,3.0,6.0,50,0.00,,,0.00,Wunderground v.1.15,2013-02-09 22:36:00,
2013-02-09 17:42:00,42.2,25.3,30.26,ESE,106,5.0,8.0,51,0.00,,,0.00,Wunderground v.1.15,2013-02-09 22:42:00,
2013-02-09 17:48:00,41.8,25.0,30.26,SE,125,5.0,9.0,51,0.00,,,0.00,Wunderground v.1.15,2013-02-09 22:48:00,
2013-02-09 17:54:00,41.3,25.0,30.26,SE,139,4.0,4.0,52,0.00,,,0.00,Wunderground v.1.15,2013-02-09 22:54:00,
2013-02-09 18:00:00,40.8,25.0,30.26,SE,140,4.0,8.0,53,0.00,,,0.00,Wunderground v.1.15,2013-02-09 23:00:00,
2013-02-09 18:05:00,40.6,24.8,30.26,SE,145,5.0,6.0,53,0.00,,,0.00,Wunderground v.1.15,2013-02-09 23:05:00,
2013-02-09 18:11:00,40.2,24.9,30.26,SE,140,5.0,6.0,54,0.00,,,0.00,Wunderground v.1.15,2013-02-09 23:11:00,
2013-02-09 18:17:00,40.0,25.1,30.26,SE,127,4.0,4.0,55,0.00,,,0.00,Wunderground v.1.15,2013-02-09 23:17:00,
2013-02-09 18:23:00,39.7,25.3,30.26,SE,132,4.0,6.0,56,0.00,,,0.00,Wunderground v.1.15,2013-02-09 23:23:00,
2013-02-09 18:29:00,39.5,25.1,30.26,SE,127,4.0,6.0,56,0.00,,,0.00,Wunderground v.1.15,2013-02-09 23:29:00,
2013-02-09 18:35:00,39.2,25.2,30.26,SE,139,3.0,4.0,57,0.00,,,0.00,Wunderground v.1.15,2013-02-09 23:35:00,
2013-02-09 18:40:00,39.0,25.0,30.26,SE,133,4.0,4.0,57,0.00,,,0.00,Wunderground v.1.15,2013-02-09 23:40:00,
2013-02-09 18:46:00,38.9,24.9,30.26,SSE,149,4.0,7.0,57,0.00,,,0.00,Wunderground v.1.15,2013-02-09 23:46:00,
2013-02-09 18:52:00,38.7,25.2,30.26,SE,132,4.0,7.0,58,0.00,,,0.00,Wunderground v.1.15,2013-02-09 23:52:00,
2013-02-09 18:58:00,38.4,24.9,30.25,ESE,122,3.0,4.0,58,0.00,,,0.00,Wunderground v.1.15,2013-02-09 23:58:00,
2013-02-09 19:04:00,38.1,25.0,30.25,SE,127,3.0,4.0,59,0.00,,,0.00,Wunderground v.1.15,2013-02-10 00:04:00,
2013-02-09 19:10:00,38.0,24.9,30.25,SE,133,3.0,4.0,59,0.00,,,0.00,Wunderground v.1.15,2013-02-10 00:10:00,
2013-02-09 19:16:00,37.6,25.0,30.25,ESE,114,3.0,4.0,60,0.00,,,0.00,Wunderground v.1.15,2013-02-10 00:16:00,
2013-02-09 19:22:00,37.3,25.1,30.25,SE,131,3.0,4.0,61,0.00,,,0.00,Wunderground v.1.15,2013-02-10 00:22:00,
2013-02-09 19:28:00,37.2,25.0,30.25,SE,134,3.0,4.0,61,0.00,,,0.00,Wunderground v.1.15,2013-02-10 00:28:00,
2013-02-09 19:34:00,37.1,24.9,30.25,SE,128,4.0,4.0,61,0.00,,,0.00,Wunderground v.1.15,2013-02-10 00:34:00,
2013-02-09 19:40:00,36.9,25.1,30.25,SE,133,4.0,4.0,62,0.00,,,0.00,Wunderground v.1.15,2013-02-10 00:40:00,
2013-02-09 19:46:00,36.9,25.1,30.25,SE,127,3.0,5.0,62,0.00,,,0.00,Wunderground v.1.15,2013-02-10 00:46:00,
2013-02-09 19:52:00,36.8,25.0,30.24,SE,141,3.0,5.0,62,0.00,,,0.00,Wunderground v.1.15,2013-02-10 00:52:00,
2013-02-09 19:57:00,36.7,24.9,30.24,SE,140,3.0,4.0,62,0.00,,,0.00,Wunderground v.1.15,2013-02-10 00:57:00,
2013-02-09 20:02:00,36.5,25.1,30.24,SE,131,3.0,4.0,63,0.00,,,0.00,Wunderground v.1.15,2013-02-10 01:02:00,
2013-02-09 20:08:00,36.4,25.0,30.24,SE,137,2.0,3.0,63,0.00,,,0.00,Wunderground v.1.15,2013-02-10 01:08:00,
2013-02-09 20:14:00,36.2,24.8,30.25,SE,131,2.0,4.0,63,0.00,,,0.00,Wunderground v.1.15,2013-02-10 01:14:00,
2013-02-09 20:20:00,36.2,24.8,30.25,SE,129,3.0,4.0,63,0.00,,,0.00,Wunderground v.1.15,2013-02-10 01:20:00,
2013-02-09 20:26:00,36.0,25.0,30.25,SE,135,3.0,3.0,64,0.00,,,0.00,Wunderground v.1.15,2013-02-10 01:26:00,
2013-02-09 20:32:00,35.8,24.8,30.25,SE,133,2.0,3.0,64,0.00,,,0.00,Wunderground v.1.15,2013-02-10 01:32:00,
2013-02-09 20:38:00,35.7,24.7,30.25,SE,134,2.0,3.0,64,0.00,,,0.00,Wunderground v.1.15,2013-02-10 01:38:00,
2013-02-09 20:44:00,35.6,24.6,30.24,SE,134,2.0,3.0,64,0.00,,,0.00,Wunderground v.1.15,2013-02-10 01:44:00,
2013-02-09 20:50:00,35.6,24.6,30.25,SE,127,2.0,3.0,64,0.00,,,0.00,Wunderground v.1.15,2013-02-10 01:50:00,
2013-02-09 20:55:00,35.5,24.5,30.25,SE,127,2.0,3.0,64,0.00,,,0.00,Wunderground v.1.15,2013-02-10 01:55:00,
2013-02-09 21:01:00,35.4,24.4,30.24,SE,139,3.0,5.0,64,0.00,,,0.00,Wunderground v.1.15,2013-02-10 02:01:00,
2013-02-09 21:06:00,35.5,24.5,30.25,SE,138,3.0,4.0,64,0.00,,,0.00,Wunderground v.1.15,2013-02-10 02:06:00,
2013-02-09 21:12:00,35.5,24.5,30.25,SE,143,3.0,4.0,64,0.00,,,0.00,Wunderground v.1.15,2013-02-10 02:12:00,
2013-02-09 21:18:00,35.6,24.6,30.25,SE,141,2.0,3.0,64,0.00,,,0.00,Wunderground v.1.15,2013-02-10 02:18:00,
2013-02-09 21:24:00,35.7,24.7,30.25,SE,141,2.0,3.0,64,0.00,,,0.00,Wunderground v.1.15,2013-02-10 02:24:00,
2013-02-09 21:30:00,35.6,24.6,30.25,SE,137,1.0,3.0,64,0.00,,,0.00,Wunderground v.1.15,2013-02-10 02:30:00,
2013-02-09 21:36:00,35.3,24.3,30.24,East,101,1.0,3.0,64,0.00,,,0.00,Wunderground v.1.15,2013-02-10 02:36:00,
2013-02-09 21:42:00,34.7,24.5,30.24,SE,131,2.0,4.0,66,0.00,,,0.00,Wunderground v.1.15,2013-02-10 02:42:00,
2013-02-09 21:48:00,34.3,24.5,30.24,SE,133,3.0,3.0,67,0.00,,,0.00,Wunderground v.1.15,2013-02-10 02:48:00,
2013-02-09 21:54:00,34.2,24.4,30.23,SE,134,3.0,3.0,67,0.00,,,0.00,Wunderground v.1.15,2013-02-10 02:54:00,
2013-02-09 22:00:00,34.6,24.8,30.23,SE,130,4.0,5.0,67,0.00,,,0.00,Wunderground v.1.15,2013-02-10 03:00:00,
2013-02-09 22:06:00,34.8,24.6,30.23,SE,131,4.0,6.0,66,0.00,,,0.00,Wunderground v.1.15,2013-02-10 03:06:00,
2013-02-09 22:11:00,34.9,24.7,30.22,SE,127,4.0,6.0,66,0.00,,,0.00,Wunderground v.1.15,2013-02-10 03:11:00,
2013-02-09 22:17:00,35.1,24.5,30.22,SE,126,4.0,6.0,65,0.00,,,0.00,Wunderground v.1.15,2013-02-10 03:17:00,
2013-02-09 22:23:00,35.3,24.7,30.22,SE,141,5.0,5.0,65,0.00,,,0.00,Wunderground v.1.15,2013-02-10 03:23:00,
2013-02-09 22:29:00,35.5,24.5,30.21,SE,140,5.0,8.0,64,0.00,,,0.00,Wunderground v.1.15,2013-02-10 03:29:00,
2013-02-09 22:35:00,35.9,24.5,30.21,SE,145,6.0,7.0,63,0.00,,,0.00,Wunderground v.1.15,2013-02-10 03:35:00,
2013-02-09 22:41:00,36.0,24.2,30.21,SE,127,6.0,7.0,62,0.00,,,0.00,Wunderground v.1.15,2013-02-10 03:41:00,
2013-02-09 22:47:00,36.1,24.3,30.20,ESE,121,6.0,8.0,62,0.00,,,0.00,Wunderground v.1.15,2013-02-10 03:47:00,
2013-02-09 22:53:00,36.1,23.9,30.20,SSE,147,5.0,5.0,61,0.00,,,0.00,Wunderground v.1.15,2013-02-10 03:53:00,
2013-02-09 22:59:00,36.2,24.0,30.19,SE,139,6.0,8.0,61,0.00,,,0.00,Wunderground v.1.15,2013-02-10 03:59:00,
2013-02-09 23:05:00,36.3,24.1,30.19,SE,136,6.0,6.0,61,0.00,,,0.00,Wunderground v.1.15,2013-02-10 04:05:00,
2013-02-09 23:11:00,36.5,23.9,30.19,SSE,148,6.0,8.0,60,0.00,,,0.00,Wunderground v.1.15,2013-02-10 04:11:00,
2013-02-09 23:16:00,36.6,24.0,30.19,SSE,148,6.0,7.0,60,0.00,,,0.00,Wunderground v.1.15,2013-02-10 04:16:00,
2013-02-09 23:22:00,36.8,23.8,30.18,SE,138,7.0,10.0,59,0.00,,,0.00,Wunderground v.1.15,2013-02-10 04:22:00,
2013-02-09 23:28:00,36.9,23.9,30.18,SSE,152,7.0,8.0,59,0.00,,,0.00,Wunderground v.1.15,2013-02-10 04:28:00,
2013-02-09 23:34:00,36.9,23.9,30.18,SE,131,7.0,8.0,59,0.00,,,0.00,Wunderground v.1.15,2013-02-10 04:34:00,
2013-02-09 23:40:00,37.0,24.0,30.17,SSE,147,7.0,11.0,59,0.00,,,0.00,Wunderground v.1.15,2013-02-10 04:40:00,
2013-02-09 23:46:00,37.1,23.7,30.17,SE,145,6.0,7.0,58,0.00,,,0.00,Wunderground v.1.15,2013-02-10 04:46:00,
2013-02-09 23:52:00,37.3,23.9,30.17,SE,139,6.0,10.0,58,0.00,,,0.00,Wunderground v.1.15,2013-02-10 04:52:00,
2013-02-09 23:57:00,37.2,23.8,30.17,SE,137,7.0,8.0,58,0.00,,,0.00,Wunderground v.1.15,2013-02-10 04:57:00,